GW0067 Weather Reports


time (UTC)temp
C
wind
direction
speed
KPH
gust
KPH
rain 1hr
cm
rain 24hr
cm
rain mn
cm
humidity
%
barometer
mb
20260508005512 5 51 0.0 0.0 0.00 0.00 0.00 90 1016.5
20260508005008 5 51 0.0 0.0 0.00 0.00 0.00 90 1016.5
20260508004521 5 51 0.0 0.0 0.00 0.00 0.00 90 1016.5
20260508004011 5 51 0.0 0.0 0.00 0.00 0.00 90 1016.5
20260508003509 5 51 0.0 0.0 0.00 0.00 0.00 90 1016.6
20260508003021 5 51 0.0 0.0 0.00 0.00 0.00 90 1016.6
20260508002507 5 51 0.0 0.0 0.00 0.00 0.00 90 1016.6
20260508002011 5 51 0.0 0.0 0.00 0.00 0.00 90 1016.6
20260508001521 5 51 0.0 0.0 0.00 0.00 0.00 90 1016.6
20260508001006 5 51 0.0 0.0 0.00 0.00 0.00 90 1016.6
20260508000507 5 51 0.0 0.0 0.00 0.00 0.00 90 1016.6
20260508000013 5 51 0.0 0.0 0.00 0.00 0.00 89 1016.5
20260507235505 5 51 0.0 0.0 0.00 0.00 0.00 89 1016.6
20260507235008 5 51 0.0 0.0 0.00 0.00 0.00 89 1016.5
20260507234520 5 51 0.0 0.0 0.00 0.00 0.00 89 1016.7
20260507234007 5 51 0.0 0.0 0.00 0.00 0.00 89 1016.8
20260507233508 5 51 0.0 0.0 0.00 0.00 0.00 89 1016.8
20260507233024 5 51 0.0 0.0 0.00 0.00 0.00 89 1016.8
20260507232509 5 51 0.0 0.0 0.00 0.00 0.00 89 1016.8
20260507232010 5 51 0.0 0.0 0.00 0.00 0.00 89 1016.9
20260507231528 5 51 0.0 0.0 0.00 0.00 0.00 88 1016.9
20260507231007 5 51 0.0 0.0 0.00 0.00 0.00 88 1016.8
20260507230508 6 51 0.0 0.0 0.00 0.00 0.00 88 1016.9
20260507230026 6 51 0.0 0.0 0.00 0.00 0.00 88 1016.9
20260507225512 6 51 0.0 0.0 0.00 0.00 0.00 88 1017.0
20260507225007 6 51 0.0 0.0 0.00 0.00 0.00 88 1017.1
20260507224511 6 51 0.0 0.0 0.00 0.00 0.00 87 1017.1
20260507224007 6 51 0.0 0.0 0.00 0.00 0.00 87 1017.1
20260507223508 6 51 0.0 0.0 0.00 0.00 0.00 87 1017.1
20260507223015 6 51 0.0 0.0 0.00 0.00 0.00 87 1017.2
20260507222510 6 51 0.0 0.0 0.00 0.00 0.00 87 1017.2
20260507222011 6 51 0.0 0.0 0.00 0.00 0.00 86 1017.1
20260507221521 7 51 0.0 0.0 0.00 0.00 0.00 86 1016.9
20260507221009 7 51 0.0 0.0 0.00 0.00 0.00 86 1016.8
20260507220509 7 51 0.0 0.0 0.00 0.00 0.00 86 1016.8
20260507220022 7 51 0.0 0.0 0.00 0.00 0.00 86 1016.8
20260507215510 7 51 0.0 0.0 0.00 0.00 0.00 85 1016.8
20260507215010 7 51 0.0 0.0 0.00 0.00 0.00 85 1017.0
20260507214523 7 51 0.0 0.0 0.00 0.00 0.00 85 1017.0
20260507214008 7 51 0.0 0.0 0.00 0.00 0.00 84 1017.1
20260507213507 7 51 0.0 0.0 0.00 0.00 0.00 84 1017.1
20260507213023 7 51 0.0 0.0 0.00 0.00 0.00 84 1017.1
20260507212511 7 51 0.0 0.0 0.00 0.00 0.00 83 1017.0
20260507212010 7 51 0.0 0.0 0.00 0.00 0.00 83 1017.1
20260507211515 8 51 0.0 0.0 0.00 0.00 0.00 82 1017.1
20260507211008 8 51 0.0 0.0 0.00 0.00 0.00 82 1017.1
20260507210512 8 51 0.0 0.0 0.00 0.00 0.00 81 1017.0
20260507210020 8 51 0.0 0.0 0.00 0.00 0.00 80 1016.9
20260507205511 8 51 0.0 0.0 0.00 0.00 0.00 80 1016.8
20260507205012 8 51 0.0 0.0 0.00 0.00 0.00 79 1016.9
20260507204525 8 51 0.0 0.0 0.00 0.00 0.00 79 1016.8
20260507204010 9 51 0.0 0.0 0.00 0.00 0.00 78 1016.8
20260507203510 9 51 0.0 0.0 0.00 0.00 0.00 78 1016.8
20260507203027 10 51 0.0 0.0 0.00 0.00 0.00 77 1016.7
20260507202508 10 51 0.0 0.0 0.00 0.00 0.00 75 1016.7
20260507202012 10 51 0.0 0.0 0.00 0.00 0.00 74 1016.6
20260507201528 10 51 0.0 0.0 0.00 0.00 0.00 73 1016.5
20260507201010 11 51 0.0 0.0 0.00 0.00 0.00 73 1016.4
20260507200510 11 51 0.0 0.0 0.00 0.00 0.00 73 1016.4
20260507200023 11 51 0.0 0.0 0.00 0.00 0.00 72 1016.3
20260507195509 11 51 0.0 0.0 0.00 0.00 0.00 71 1016.2
20260507195008 11 51 0.0 0.0 0.00 0.00 0.00 71 1016.2
20260507194525 12 51 0.0 0.0 0.00 0.00 0.00 70 1016.1
20260507194009 12 51 0.0 0.0 0.00 0.00 0.00 69 1016.1
20260507193510 12 51 0.0 0.0 0.00 0.00 0.00 69 1016.1
20260507193030 12 51 0.0 0.0 0.00 0.00 0.00 68 1016.0
20260507192511 12 51 0.0 0.0 0.00 0.00 0.00 68 1016.0
20260507192005 12 51 0.0 0.0 0.00 0.00 0.00 67 1016.0
20260507191510 13 51 0.0 0.0 0.00 0.00 0.00 67 1015.9
20260507191008 13 98 0.0 0.0 0.00 0.00 0.00 66 1015.9
20260507190508 13 276 0.0 0.0 0.00 0.00 0.00 66 1015.9
20260507190020 13 261 0.0 3.2 0.00 0.00 0.00 66 1015.8
20260507185508 13 316 0.0 3.2 0.00 0.00 0.00 66 1015.8
20260507185010 13 278 0.0 1.6 0.00 0.00 0.00 65 1015.8
20260507184522 13 242 0.0 4.8 0.00 0.00 0.00 66 1015.7
20260507184010 13 229 0.0 4.8 0.00 0.00 0.00 65 1015.8
20260507183511 13 141 0.0 0.0 0.00 0.00 0.00 65 1015.7
20260507183008 13 240 0.0 0.0 0.00 0.00 0.00 65 1015.7
20260507182505 13 253 0.0 0.0 0.00 0.00 0.00 65 1015.7
20260507182007 13 242 0.0 0.0 0.00 0.00 0.00 65 1015.7
20260507181508 13 265 0.0 0.0 0.00 0.00 0.00 65 1015.7
20260507181006 13 219 0.0 0.0 0.00 0.00 0.00 65 1015.6
20260507180507 13 293 0.0 0.0 0.00 0.00 0.00 64 1015.6
20260507180016 13 262 0.0 0.0 0.00 0.00 0.00 64 1015.6
20260507175508 13 240 0.0 0.0 0.00 0.00 0.00 65 1015.5
20260507175008 13 236 0.0 0.0 0.00 0.00 0.00 64 1015.5
20260507174532 13 275 0.0 0.0 0.00 0.00 0.00 62 1015.5
20260507174009 14 131 0.0 4.8 0.00 0.00 0.00 62 1015.5
20260507173509 14 262 0.0 4.8 0.00 0.00 0.00 62 1015.4
20260507173024 14 218 0.0 3.2 0.00 0.00 0.00 62 1015.4
20260507172509 14 260 0.0 0.0 0.00 0.00 0.00 59 1015.3
20260507171006 14 22 0.0 0.0 0.00 0.00 0.00 58 1015.5
20260507170508 14 256 0.0 0.0 0.00 0.00 0.00 58 1015.4
20260507165508 14 277 0.0 0.0 0.00 0.00 0.00 57 1015.4
20260507165008 15 293 0.0 1.6 0.00 0.00 0.00 59 1015.4
20260507164516 15 260 0.0 1.6 0.00 0.00 0.00 57 1015.4
20260507164010 15 25 0.0 0.0 0.00 0.00 0.00 57 1015.4
20260507163510 15 41 0.0 0.0 0.00 0.00 0.00 57 1015.4
20260507163022 15 290 0.0 0.0 0.00 0.00 0.00 57 1015.4
20260507162011 15 252 0.0 3.2 0.00 0.00 0.00 59 1015.3
20260507160516 15 118 0.0 1.6 0.00 0.00 0.00 59 1015.4
20260507155006 15 46 0.0 4.8 0.00 0.00 0.00 57 1015.6
20260507154009 16 323 0.0 4.8 0.00 0.00 0.00 56 1015.5
20260507153509 16 226 0.0 4.8 0.00 0.00 0.00 55 1015.5
20260507153025 16 267 0.0 4.8 0.00 0.00 0.00 50 1015.4
20260507152012 16 10 0.0 4.8 0.00 0.00 0.00 45 1015.4
20260507151011 16 273 0.0 0.0 0.00 0.00 0.00 43 1015.4
20260507145510 16 262 0.0 0.0 0.00 0.00 0.00 42 1015.5
20260507145009 16 262 0.0 0.0 0.00 0.00 0.00 40 1015.5
20260507144524 16 305 0.0 0.0 0.00 0.00 0.00 41 1015.5
20260507144008 16 218 0.0 0.0 0.00 0.00 0.00 40 1015.5
20260507143507 16 37 0.0 0.0 0.00 0.00 0.00 40 1015.6
20260507143029 16 261 0.0 0.0 0.00 0.00 0.00 43 1015.6
20260507142508 16 292 0.0 0.0 0.00 0.00 0.00 41 1015.6
20260507142011 16 259 0.0 0.0 0.00 0.00 0.00 43 1015.7
20260507141519 16 262 0.0 0.0 0.00 0.00 0.00 40 1015.7
20260507141012 16 66 0.0 0.0 0.00 0.00 0.00 40 1015.7
20260507140510 16 258 0.0 0.0 0.00 0.00 0.00 41 1015.8
20260507140025 16 47 0.0 0.0 0.00 0.00 0.00 40 1015.7
20260507135510 16 47 0.0 0.0 0.00 0.00 0.00 38 1015.7
20260507135011 16 54 0.0 0.0 0.00 0.00 0.00 39 1015.8
20260507134524 16 55 0.0 0.0 0.00 0.00 0.00 39 1015.8
20260507134008 16 281 0.0 0.0 0.00 0.00 0.00 42 1015.8
20260507133508 16 278 0.0 0.0 0.00 0.00 0.00 42 1015.8
20260507133026 16 248 0.0 0.0 0.00 0.00 0.00 42 1015.8
20260507132508 16 248 0.0 0.0 0.00 0.00 0.00 41 1015.9
20260507132011 16 244 0.0 0.0 0.00 0.00 0.00 42 1016.0
20260507131516 16 248 0.0 0.0 0.00 0.00 0.00 44 1016.0
20260507130508 15 258 0.0 1.6 0.00 0.00 0.00 43 1015.9
20260507130031 16 265 0.0 1.6 0.00 0.00 0.00 44 1015.9
20260507125513 16 259 0.0 0.0 0.00 0.00 0.00 41 1015.9
20260507125011 16 259 0.0 0.0 0.00 0.00 0.00 42 1016.0
20260507124523 15 128 0.0 0.0 0.00 0.00 0.00 40 1015.9
20260507124008 16 250 0.0 0.0 0.00 0.00 0.00 43 1016.0
20260507123511 15 241 0.0 0.0 0.00 0.00 0.00 42 1016.0
20260507123026 15 243 0.0 0.0 0.00 0.00 0.00 43 1016.0
20260507122510 15 258 0.0 4.8 0.00 0.00 0.00 43 1016.0
20260507122014 15 253 3.2 4.8 0.00 0.00 0.00 46 1016.1
20260507121526 16 262 0.0 0.0 0.00 0.00 0.00 45 1016.1
20260507121008 15 238 0.0 6.4 0.00 0.00 0.00 44 1016.1
20260507120509 15 238 0.0 6.4 0.00 0.00 0.00 45 1016.1
20260507120025 16 255 3.2 6.4 0.00 0.00 0.00 43 1016.1
20260507115009 16 251 0.0 1.6 0.00 0.00 0.00 44 1016.1
20260507114522 17 252 0.0 1.6 0.00 0.00 0.00 40 1016.1
20260507114011 17 85 0.0 0.0 0.00 0.00 0.00 40 1016.1
20260507113511 17 68 0.0 3.2 0.00 0.00 0.00 43 1016.1
20260507113024 16 103 0.0 3.2 0.00 0.00 0.00 43 1016.2
20260507112511 15 196 0.0 3.2 0.00 0.00 0.00 47 1016.2
20260507112009 15 250 0.0 0.0 0.00 0.00 0.00 50 1016.3
20260507111524 14 260 0.0 0.0 0.00 0.00 0.00 49 1016.4
20260507111008 15 241 0.0 0.0 0.00 0.00 0.00 49 1016.4
20260507110509 15 261 0.0 0.0 0.00 0.00 0.00 46 1016.4
20260507105509 16 258 0.0 0.0 0.00 0.00 0.00 47 1016.4
20260507105013 16 249 0.0 0.0 0.00 0.00 0.00 47 1016.4
20260507103506 16 229 0.0 0.0 0.00 0.00 0.00 49 1016.4
20260507103027 15 248 0.0 0.0 0.00 0.00 0.00 54 1016.5
20260507102508 15 248 0.0 0.0 0.00 0.00 0.00 50 1016.5
20260507102006 15 66 0.0 6.4 0.00 0.00 0.00 51 1016.6
20260507101508 15 1 0.0 6.4 0.00 0.00 0.00 47 1016.6
20260507101005 16 23 0.0 0.0 0.00 0.00 0.00 50 1016.6
20260507100504 15 308 0.0 0.0 0.00 0.00 0.00 51 1016.6
20260507100006 15 56 0.0 0.0 0.00 0.00 0.00 52 1016.7
20260507095503 14 120 0.0 0.0 0.00 0.00 0.00 56 1016.7
20260507095003 14 261 0.0 0.0 0.00 0.00 0.00 57 1016.7
20260507094521 13 251 0.0 0.0 0.00 0.00 0.00 61 1016.7
20260507094006 13 247 0.0 0.0 0.00 0.00 0.00 59 1016.7
20260507093504 14 86 0.0 0.0 0.00 0.00 0.00 60 1016.7
20260507093004 14 86 0.0 0.0 0.00 0.00 0.00 59 1016.6
20260507092504 14 86 0.0 0.0 0.00 0.00 0.00 59 1016.7
20260507092005 15 86 0.0 3.2 0.00 0.00 0.00 58 1016.7
20260507091511 14 34 0.0 3.2 0.00 0.00 0.00 60 1016.7
20260507091006 14 204 0.0 6.4 0.00 0.00 0.00 63 1016.7
20260507090505 13 79 0.0 6.4 0.00 0.00 0.00 62 1016.7
20260507090012 13 30 0.0 3.2 0.00 0.00 0.00 65 1016.7
20260507085504 13 77 0.0 3.2 0.00 0.00 0.00 65 1016.8
20260507085009 13 279 0.0 4.8 0.00 0.00 0.00 68 1016.8
20260507084516 13 256 0.0 4.8 0.00 0.00 0.00 69 1016.8
20260507084003 13 52 0.0 0.0 0.00 0.00 0.00 71 1016.8
20260507083502 12 52 0.0 0.0 0.00 0.00 0.00 72 1016.8
20260507083004 12 39 0.0 0.0 0.00 0.00 0.00 74 1016.8
20260507082503 12 281 0.0 0.0 0.00 0.00 0.00 76 1016.8
20260507082002 12 221 0.0 0.0 0.00 0.00 0.00 75 1016.8
20260507080502 11 54 0.0 1.6 0.00 0.00 0.00 78 1016.8
20260507075506 11 212 0.0 0.0 0.00 0.00 0.00 81 1016.8
20260507074512 10 46 0.0 0.0 0.00 0.00 0.00 82 1016.7
20260507073507 10 252 0.0 0.0 0.00 0.00 0.00 85 1016.8
20260507073017 9 252 0.0 0.0 0.00 0.00 0.00 87 1016.8
20260507072503 8 252 0.0 0.0 0.00 0.00 0.00 87 1016.8
20260507072002 8 74 0.0 0.0 0.00 0.00 0.00 89 1016.7
20260507070502 7 275 0.0 0.0 0.00 0.00 0.00 91 1016.7
20260507070010 6 256 0.0 0.0 0.00 0.00 0.00 91 1016.7
20260507065503 6 256 0.0 0.0 0.00 0.00 0.00 91 1016.8
20260507065004 5 255 0.0 0.0 0.00 0.00 0.00 91 1016.8
20260507064507 5 256 0.0 0.0 0.00 0.00 0.00 92 1016.8
20260507064007 5 255 0.0 0.0 0.00 0.00 0.00 92 1016.8
20260507063509 4 255 0.0 0.0 0.00 0.00 0.00 92 1016.7
20260507063016 4 255 0.0 0.0 0.00 0.00 0.00 92 1016.7
20260507062512 3 255 0.0 0.0 0.00 0.00 0.00 92 1016.6
20260507062008 3 255 0.0 0.0 0.00 0.00 0.00 92 1016.6
20260507061520 3 50 0.0 0.0 0.00 0.00 0.00 92 1016.6
20260507061011 2 112 0.0 0.0 0.00 0.00 0.00 92 1016.6
20260507060005 2 112 0.0 0.0 0.00 0.00 0.00 92 1016.5
20260507055504 2 112 0.0 0.0 0.00 0.00 0.00 92 1016.6
20260507055002 2 112 0.0 0.0 0.00 0.00 0.00 92 1016.5
20260507054508 2 112 0.0 0.0 0.00 0.00 0.00 92 1016.4
20260507054003 2 112 0.0 0.0 0.00 0.00 0.00 92 1016.4
20260507053502 2 112 0.0 0.0 0.00 0.00 0.00 92 1016.4
20260507053010 2 112 0.0 0.0 0.00 0.00 0.00 92 1016.3
20260507052507 1 112 0.0 0.0 0.00 0.00 0.00 92 1016.3
20260507052004 1 112 0.0 0.0 0.00 0.00 0.00 92 1016.3
20260507051008 1 112 0.0 0.0 0.00 0.00 0.00 92 1016.2
20260507050033 1 112 0.0 0.0 0.00 0.00 0.00 92 1016.2
20260507045512 1 112 0.0 0.0 0.00 0.00 0.00 92 1016.1
20260507045009 1 112 0.0 0.0 0.00 0.00 0.00 92 1016.0
20260507044506 1 112 0.0 0.0 0.00 0.00 0.00 92 1016.0
20260507044002 1 112 0.0 0.0 0.00 0.00 0.00 92 1016.0
20260507043504 1 112 0.0 0.0 0.00 0.00 0.00 92 1016.0
20260507042504 1 112 0.0 0.0 0.00 0.00 0.00 92 1015.9
20260507042007 1 112 0.0 0.0 0.00 0.00 0.00 92 1015.9
20260507041524 1 112 0.0 0.0 0.00 0.00 0.00 92 1016.0
20260507041004 1 112 0.0 0.0 0.00 0.00 0.00 92 1016.0
20260507040505 1 112 0.0 0.0 0.00 0.00 0.00 92 1016.1
20260507040019 1 112 0.0 0.0 0.00 0.00 0.00 92 1016.1
20260507035508 1 112 0.0 0.0 0.00 0.00 0.00 92 1016.0
20260507035011 1 112 0.0 0.0 0.00 0.00 0.00 91 1016.0
20260507034523 1 112 0.0 0.0 0.00 0.00 0.00 92 1016.0
20260507034009 1 112 0.0 0.0 0.00 0.00 0.00 91 1016.0
20260507033509 1 112 0.0 0.0 0.00 0.00 0.00 91 1016.0
20260507033024 1 112 0.0 0.0 0.00 0.00 0.00 91 1015.9
20260507032510 1 112 0.0 0.0 0.00 0.00 0.00 91 1016.0
20260507032003 1 112 0.0 0.0 0.00 0.00 0.00 91 1016.0
20260507031510 1 112 0.0 0.0 0.00 0.00 0.00 91 1016.1
20260507031003 1 112 0.0 0.0 0.00 0.00 0.00 91 1016.0
20260507030511 1 112 0.0 0.0 0.00 0.00 0.00 91 1016.0
20260507030026 1 112 0.0 0.0 0.00 0.00 0.00 91 1016.0
20260507025505 2 112 0.0 0.0 0.00 0.00 0.00 91 1016.0
20260507025006 2 112 0.0 0.0 0.00 0.00 0.00 91 1016.0
20260507024525 2 112 0.0 0.0 0.00 0.00 0.00 91 1016.0
20260507024008 2 112 0.0 0.0 0.00 0.00 0.00 91 1016.0
20260507023506 2 112 0.0 0.0 0.00 0.00 0.00 91 1015.9
20260507023022 2 112 0.0 0.0 0.00 0.00 0.00 91 1016.0
20260507022509 2 112 0.0 0.0 0.00 0.00 0.00 91 1015.9
20260507022008 2 112 0.0 0.0 0.00 0.00 0.00 91 1015.9
20260507021522 2 112 0.0 0.0 0.00 0.00 0.00 91 1015.9
20260507021011 2 112 0.0 0.0 0.00 0.00 0.00 91 1015.9
20260507020508 2 112 0.0 0.0 0.00 0.00 0.00 91 1015.9
20260507020012 2 112 0.0 0.0 0.00 0.00 0.00 91 1015.8
20260507015508 2 112 0.0 0.0 0.00 0.00 0.00 91 1015.8
20260507015008 2 112 0.0 0.0 0.00 0.00 0.00 91 1015.8
20260507014517 2 112 0.0 0.0 0.00 0.00 0.00 91 1015.8
20260507014009 2 112 0.0 0.0 0.00 0.00 0.00 91 1015.8
20260507013507 2 112 0.0 0.0 0.00 0.00 0.00 91 1015.8
20260507013021 3 112 0.0 0.0 0.00 0.00 0.00 91 1015.8
20260507012510 3 112 0.0 0.0 0.00 0.00 0.00 90 1015.8
20260507012009 3 112 0.0 0.0 0.00 0.00 0.00 91 1015.9
20260507011522 3 112 0.0 0.0 0.00 0.00 0.00 90 1015.9
20260507011004 3 112 0.0 0.0 0.00 0.00 0.00 90 1015.8
20260507010504 3 112 0.0 0.0 0.00 0.00 0.00 90 1015.8
20260507010008 3 112 0.0 0.0 0.00 0.00 0.00 90 1015.8